Location: Bacharowice
(49.9333°N, 19.5833°E)
Time: 09:06:34
(UTC+00:00)

Cosmos 1461 - Pass Details

Date: 11 May 2021
Orbit: 510 x 653 km, 65.0° (Epoch: 21 June)

Event Time Altitude Azimuth Distance (km) Brightness Sun altitude
Exits shadow 23:07:22 22° 260° (W) 1,420 4.7 -21.6°
Maximum altitude 23:09:57 42° 319° (NW) 925 4.2 -21.6°
Drops below altitude 10° 23:14:20 10° 31° (NNE) 2,018 6.7 -21.5°
Sets 23:16:41 0° 38° (NE) 2,907 7.5 -21.4°
